Chattanooga, TN

6:27 AM EST on December 10, 2016 (GMT -0500)
Lovell

Weather History for KCHA - January, 2013

Change the Weather History Date:

Thursday, January 17, 2013

  Actual Average Record
Temperature  
Mean Temperature 41 °F 40 °F  
Max Temperature 45 °F 50 °F 73 °F (1907)
Min Temperature 37 °F 30 °F -2 °F (1977)
Degree Days  
Heating Degree Days 24 25  
Month to date heating degree days 294 425  
Since 1 July heating degree days 1433 1709  
Moisture  
Dew Point 37 °F    
Average Humidity 78    
Maximum Humidity 92    
Minimum Humidity 64    
Precipitation  
Precipitation 0.21 in 0.16 in 2.13 in (1926)
Month to date precipitation 7.37 2.67  
Year to date precipitation 7.37 2.67  
Snow  
Snow 0.00 in 0.00 in - ()
Month to date snowfall 0.0 0.9  
Since 1 July snowfall T 1.2  
Snow Depth 0.00 in    
Sea Level Pressure  
Sea Level Pressure 29.99 in    
Wind  
Wind Speed 15 mph (North)    
Max Wind Speed 33 mph    
Max Gust Speed 47 mph    
Visibility 9 miles    
Events Rain    
T = Trace of Precipitation, MM = Missing Value Source: NWS Daily Summary

Daily Weather History Graph

Daily Weather History Graph

Search for Another Location

Airport or City:

Trip Planner

Search our weather history database for the weather conditions in past years. The results will help you decide how hot, cold, wet, or windy it might be!

Date:

Astronomy

Jan. 17, 2013 Rise Set
Actual Time 7:47 AM EST 5:54 PM EST
Civil Twilight 7:20 AM EST 6:22 PM EST
Nautical Twilight 6:49 AM EST 6:53 PM EST
Astronomical Twilight 6:19 AM EST 7:23 PM EST
Moon 11:11 AM EST (1/17) No Moon Set
Length of Visible Light 11h 01m
Length of Day
10h 06m
Waxing Crescent, 37% of the Moon is Illuminated
Jan 17
Waxing Crescent
Jan 18
First Quarter
Jan 26
Full
Feb 3
Last Quarter
Feb 10
New

Hourly Weather History & Observations

Time (EST) Temp. Windchill Dew Point Humidity Pressure Visibility Wind Dir Wind Speed Gust Speed Precip Events Conditions
12:53 AM 44.1 °F 39.5 °F 42.1 °F 93% 30.04 in 10.0 mi North 8.1 mph - 0.01 in Rain Light Rain
1:13 AM 44.6 °F 41.4 °F 42.8 °F 93% 30.04 in 10.0 mi North 5.8 mph - 0.00 in Rain Light Rain
1:53 AM 45.0 °F 40.6 °F 43.0 °F 93% 30.02 in 10.0 mi NNE 8.1 mph - 0.00 in Rain Light Rain
2:53 AM 45.0 °F 41.2 °F 43.0 °F 93% 30.04 in 10.0 mi NNW 6.9 mph - 0.00 in Rain Light Rain
3:53 AM 45.0 °F 37.9 °F 42.1 °F 90% 30.00 in 10.0 mi NNE 16.1 mph - 0.01 in   Overcast
4:53 AM 44.1 °F 37.4 °F 41.0 °F 89% 29.99 in 10.0 mi North 13.8 mph 24.2 mph N/A   Overcast
5:53 AM 44.1 °F 37.4 °F 39.9 °F 85% 29.97 in 10.0 mi NNE 13.8 mph 20.7 mph 0.00 in   Light Drizzle
6:53 AM 43.0 °F 37.7 °F 37.0 °F 80% 29.98 in 10.0 mi NNE 9.2 mph - 0.00 in Rain Light Rain
7:53 AM 41.0 °F 33.1 °F 35.1 °F 79% 29.98 in 10.0 mi North 15.0 mph 21.9 mph 0.00 in Rain Light Rain
8:03 AM 41.0 °F 31.9 °F 35.6 °F 81% 29.96 in 10.0 mi North 19.6 mph 24.2 mph 0.00 in Rain Light Rain
8:36 AM 41.0 °F 33.9 °F 35.6 °F 81% 29.96 in 10.0 mi NNE 12.7 mph - 0.00 in   Overcast
8:53 AM 41.0 °F 34.3 °F 36.0 °F 82% 29.99 in 7.0 mi NNE 11.5 mph 21.9 mph 0.01 in Rain Light Rain
9:09 AM 39.2 °F 30.5 °F 37.4 °F 93% 29.95 in 2.0 mi NNE 16.1 mph - 0.03 in Rain Rain
9:19 AM 39.2 °F 29.8 °F 35.6 °F 87% 29.95 in 3.0 mi North 18.4 mph 25.3 mph 0.04 in Rain Light Rain
9:53 AM 39.0 °F 31.0 °F 37.9 °F 96% 29.92 in 10.0 mi NNE 13.8 mph 31.1 mph 0.04 in Rain Light Rain
10:16 AM 39.2 °F 31.2 °F 39.2 °F 100% 29.91 in 10.0 mi NNE 13.8 mph 19.6 mph 0.00 in Rain Light Rain
10:49 AM 39.2 °F 30.8 °F 39.2 °F 100% 29.90 in 10.0 mi NNE 15.0 mph - 0.00 in   Light Drizzle
10:53 AM 39.9 °F 31.1 °F 39.9 °F 100% 29.90 in 10.0 mi NNE 17.3 mph 24.2 mph 0.00 in   Light Drizzle
11:53 AM 41.0 °F 31.4 °F 41.0 °F 100% 29.86 in 10.0 mi North 21.9 mph 31.1 mph 0.00 in   Overcast
12:53 PM 41.0 °F 30.2 °F 37.9 °F 89% 29.76 in 10.0 mi NNE 27.6 mph 44.9 mph N/A   Overcast
1:33 PM 42.8 °F 33.1 °F 35.6 °F 76% 29.80 in 10.0 mi North 25.3 mph 35.7 mph N/A   Overcast
1:53 PM 43.0 °F 32.9 °F 37.0 °F 80% 29.81 in 7.0 mi North 27.6 mph 36.8 mph 0.00 in Rain Light Rain
2:05 PM 41.0 °F 31.4 °F 37.4 °F 87% 29.82 in 2.0 mi North 21.9 mph 33.4 mph 0.02 in Rain Heavy Rain
2:26 PM 41.0 °F 31.9 °F 37.4 °F 87% 29.82 in 6.0 mi North 19.6 mph 35.7 mph 0.05 in Rain Rain
2:53 PM 41.0 °F 31.6 °F 36.0 °F 82% 29.84 in 10.0 mi North 20.7 mph 28.8 mph 0.05 in   Light Drizzle
3:40 PM 39.2 °F 28.7 °F 35.6 °F 87% 29.88 in 3.0 mi North 23.0 mph 33.4 mph 0.01 in Rain Heavy Rain
3:53 PM 39.9 °F 30.0 °F 36.0 °F 86% 29.90 in 5.0 mi North 21.9 mph 33.4 mph 0.04 in Rain Light Rain
4:53 PM 39.0 °F 29.9 °F 36.0 °F 89% 29.99 in 4.0 mi North 17.3 mph 25.3 mph 0.05 in   Light Drizzle
5:00 PM 39.2 °F 28.7 °F 35.6 °F 87% 29.99 in 7.0 mi North 23.0 mph 26.5 mph 0.00 in   Light Drizzle
5:53 PM 41.0 °F 33.1 °F 33.1 °F 73% 30.09 in 10.0 mi North 15.0 mph 26.5 mph 0.00 in   Mostly Cloudy
6:53 PM 41.0 °F 32.5 °F 30.9 °F 67% 30.19 in 10.0 mi NNW 17.3 mph - N/A   Mostly Cloudy
7:53 PM 39.9 °F 32.9 °F 30.9 °F 70% 30.24 in 10.0 mi NNW 11.5 mph - N/A   Scattered Clouds
8:53 PM 39.0 °F 31.4 °F 30.0 °F 70% 30.27 in 10.0 mi NNW 12.7 mph - N/A   Partly Cloudy
9:53 PM 39.0 °F 31.4 °F 28.9 °F 67% 30.29 in 10.0 mi NNW 12.7 mph 19.6 mph N/A   Clear
10:53 PM 37.9 °F 30.5 °F 28.0 °F 68% 30.33 in 10.0 mi North 11.5 mph - N/A   Clear
11:53 PM 37.9 °F 30.5 °F 25.0 °F 60% 30.36 in 10.0 mi North 11.5 mph - N/A   Clear